This is the latest recevied weather packets stored in our database for station/object N3WMC. If no packets are shown the sender has not sent any weather packets the latest 10 day(s).
| Time | Temp. | Humidity | Pressure | Rain* | Wind** | Luminosity | Snow |
|---|---|---|---|---|---|---|---|
| 1778067986 | 13.89° C | 97% | 1006.7 hPa | 0 mm | - | 18 W/m² | - |
| 1778067684 | 13.89° C | 97% | 1006.9 hPa | 0 mm | - | 22 W/m² | - |
| 1778067382 | 13.89° C | 97% | 1006.5 hPa | 0 mm | - | 29 W/m² | - |
| 1778067079 | 13.89° C | 97% | 1006.5 hPa | 0 mm | - | 14 W/m² | - |
| 1778066775 | 13.89° C | 97% | 1006.5 hPa | 0 mm | - | 18 W/m² | - |
| 1778066473 | 13.89° C | 97% | 1006.6 hPa | 0 mm | - | 14 W/m² | - |
| 1778066171 | 13.33° C | 97% | 1006.6 hPa | 1.27 mm | - | 10 W/m² | - |
| 1778065868 | 13.33° C | 97% | 1006.8 hPa | 3.05 mm | - | 6 W/m² | - |
| 1778065565 | 13.33° C | 97% | 1006.8 hPa | 3.05 mm | - | 3 W/m² | - |
| 1778065263 | 13.33° C | 97% | 1006.9 hPa | 3.05 mm | - | 3 W/m² | - |
| 1778064958 | 13.33° C | 97% | 1006.9 hPa | 3.05 mm | - | 2 W/m² | - |
| 1778064656 | 13.33° C | 97% | 1007 hPa | 4.32 mm | - | 1 W/m² | - |
| 1778064354 | 13.33° C | 97% | 1007 hPa | 4.83 mm | - | 1 W/m² | - |
| 1778064051 | 13.33° C | 97% | 1007.1 hPa | 3.05 mm | - | 1 W/m² | - |
| 1778063748 | 13.33° C | 97% | 1006.8 hPa | 3.05 mm | - | 1 W/m² | - |
| 1778063445 | 13.33° C | 97% | 1007 hPa | 4.83 mm | - | 1 W/m² | - |
| 1778063143 | 13.33° C | 97% | 1006.8 hPa | 6.1 mm | - | 1 W/m² | - |
| 1778062841 | 13.33° C | 97% | 1007 hPa | 6.1 mm | - | 0 W/m² | - |
| 1778062537 | 13.33° C | 97% | 1006.9 hPa | 6.1 mm | - | 0 W/m² | - |
| 1778062234 | 13.33° C | 97% | 1006.9 hPa | 6.1 mm | - | 0 W/m² | - |
| 1778061932 | 13.33° C | 96% | 1006.9 hPa | 6.1 mm | - | 0 W/m² | - |
| 1778061630 | 13.33° C | 96% | 1007 hPa | 3.05 mm | - | 0 W/m² | - |
| 1778061329 | 13.33° C | 96% | 1006.9 hPa | 3.05 mm | - | 0 W/m² | - |
| 1778061024 | 13.33° C | 96% | 1007 hPa | 3.05 mm | - | 0 W/m² | - |
| 1778060723 | 13.33° C | 96% | 1007 hPa | 3.05 mm | - | 0 W/m² | - |
* Rain latest hour (hover to see other rain measurements)
** Current wind speed in m/s (hover to see current wind gust speed)